| time (UTC) | temp C | wind direction | speed KPH | gust KPH | rain 1hr cm | rain 24hr cm | rain mn cm | humidity % | barometer mb |
| 20260506212035 | 6 | 294 | 1.6 | 4.8 | 0.23 | 2.77 | 2.64 | 95 | 1005.6 |
| 20260506211547 | 6 | 338 | 1.6 | 6.4 | 0.20 | 2.74 | 2.62 | 95 | 1005.6 |
| 20260506211036 | 6 | 0 | 0.0 | 6.4 | 0.18 | 2.72 | 2.59 | 95 | 1005.7 |
| 20260506210540 | 6 | 327 | 1.6 | 9.7 | 0.15 | 2.67 | 2.57 | 95 | 1005.6 |
| 20260506210050 | 6 | 0 | 1.6 | 9.7 | 0.13 | 2.64 | 2.54 | 95 | 1005.5 |
| 20260506205535 | 6 | 331 | 1.6 | 9.7 | 0.10 | 2.92 | 2.51 | 95 | 1005.5 |
| 20260506205038 | 7 | 0 | 1.6 | 8.0 | 0.10 | 2.90 | 2.49 | 95 | 1005.4 |
| 20260506204545 | 7 | 0 | 1.6 | 8.0 | 0.08 | 2.87 | 2.46 | 95 | 1005.5 |
| 20260506204035 | 7 | 0 | 0.0 | 6.4 | 0.05 | 2.84 | 2.44 | 95 | 1005.2 |
| 20260506203536 | 7 | 0 | 1.6 | 6.4 | 0.05 | 2.84 | 2.44 | 95 | 1005.2 |
| 20260506203051 | 7 | 285 | 1.6 | 6.4 | 0.05 | 2.84 | 2.44 | 95 | 1005.1 |
| 20260506202536 | 7 | 0 | 0.0 | 6.4 | 0.05 | 2.84 | 2.44 | 95 | 1005.1 |
| 20260506202035 | 7 | 320 | 1.6 | 6.4 | 0.03 | 2.82 | 2.41 | 95 | 1005.3 |
| 20260506201604 | 7 | 304 | 1.6 | 6.4 | 0.03 | 2.82 | 2.41 | 95 | 1005.2 |
| 20260506201039 | 7 | 0 | 1.6 | 6.4 | 0.03 | 2.82 | 2.41 | 95 | 1005.2 |
| 20260506200536 | 7 | 0 | 1.6 | 4.8 | 0.03 | 2.82 | 2.41 | 95 | 1005.2 |
| 20260506200044 | 7 | 292 | 0.0 | 6.4 | 0.05 | 2.82 | 2.41 | 95 | 1005.2 |
| 20260506195536 | 7 | 0 | 1.6 | 6.4 | 0.05 | 2.82 | 2.41 | 95 | 1005.3 |
| 20260506195039 | 7 | 308 | 0.0 | 4.8 | 0.03 | 2.79 | 2.39 | 95 | 1005.2 |
| 20260506194553 | 7 | 286 | 0.0 | 6.4 | 0.03 | 2.79 | 2.39 | 95 | 1005.2 |
| 20260506194036 | 7 | 0 | 0.0 | 8.0 | 0.05 | 2.79 | 2.39 | 95 | 1005.2 |
| 20260506193535 | 7 | 0 | 1.6 | 8.0 | 0.08 | 2.79 | 2.39 | 95 | 1005.2 |
| 20260506193051 | 7 | 21 | 1.6 | 8.0 | 0.10 | 2.79 | 2.39 | 95 | 1005.3 |
| 20260506192536 | 7 | 327 | 1.6 | 8.0 | 0.10 | 2.79 | 2.39 | 95 | 1005.4 |
| 20260506192038 | 7 | 335 | 0.0 | 4.8 | 0.13 | 2.79 | 2.39 | 95 | 1005.3 |
| 20260506191543 | 7 | 309 | 0.0 | 6.4 | 0.13 | 2.79 | 2.39 | 95 | 1005.2 |
| 20260506191037 | 7 | 340 | 1.6 | 6.4 | 0.15 | 2.79 | 2.39 | 95 | 1005.3 |
| 20260506190535 | 7 | 9 | 0.0 | 6.4 | 0.15 | 2.79 | 2.39 | 95 | 1005.4 |
| 20260506190045 | 7 | 273 | 0.0 | 6.4 | 0.15 | 2.77 | 2.36 | 95 | 1005.6 |
| 20260506185536 | 7 | 336 | 0.0 | 4.8 | 0.20 | 2.77 | 2.36 | 95 | 1005.6 |
| 20260506185036 | 6 | 0 | 1.6 | 4.8 | 0.25 | 2.77 | 2.36 | 95 | 1005.6 |
| 20260506184550 | 6 | 0 | 1.6 | 4.8 | 0.30 | 2.77 | 2.36 | 95 | 1005.8 |
| 20260506184036 | 7 | 55 | 1.6 | 8.0 | 0.30 | 2.74 | 2.34 | 95 | 1005.6 |
| 20260506183539 | 7 | 0 | 1.6 | 8.0 | 0.30 | 2.72 | 2.31 | 95 | 1005.5 |
| 20260506183047 | 7 | 274 | 1.6 | 8.0 | 0.30 | 2.67 | 2.29 | 95 | 1005.6 |
| 20260506182535 | 7 | 0 | 0.0 | 4.8 | 0.33 | 2.67 | 2.29 | 95 | 1005.7 |
| 20260506182035 | 7 | 0 | 0.0 | 4.8 | 0.33 | 2.64 | 2.26 | 95 | 1005.7 |
| 20260506181545 | 7 | 0 | 0.0 | 9.7 | 0.33 | 2.64 | 2.26 | 95 | 1005.7 |
| 20260506181036 | 7 | 0 | 0.0 | 9.7 | 0.33 | 2.64 | 2.24 | 95 | 1005.9 |
| 20260506180537 | 7 | 0 | 0.0 | 3.2 | 0.38 | 2.64 | 2.24 | 95 | 1006.0 |
| 20260506180048 | 7 | 153 | 0.0 | 6.4 | 0.43 | 2.62 | 2.21 | 95 | 1006.1 |
| 20260506175536 | 7 | 0 | 0.0 | 6.4 | 0.46 | 2.57 | 2.16 | 95 | 1006.1 |
| 20260506175036 | 7 | 42 | 0.0 | 8.0 | 0.43 | 2.51 | 2.11 | 95 | 1006.1 |
| 20260506174545 | 7 | 0 | 1.6 | 9.7 | 0.43 | 2.46 | 2.06 | 95 | 1006.2 |
| 20260506174036 | 7 | 294 | 0.0 | 9.7 | 0.43 | 2.44 | 2.03 | 95 | 1006.3 |
| 20260506173538 | 8 | 319 | 1.6 | 9.7 | 0.41 | 2.41 | 2.01 | 95 | 1006.3 |
| 20260506173100 | 8 | 326 | 0.0 | 6.4 | 0.41 | 2.39 | 1.98 | 96 | 1006.3 |
| 20260506172537 | 8 | 5 | 0.0 | 6.4 | 0.41 | 2.36 | 1.96 | 96 | 1006.1 |
| 20260506172036 | 8 | 61 | 0.0 | 4.8 | 0.41 | 2.34 | 1.93 | 96 | 1006.0 |
| 20260506171553 | 8 | 352 | 0.0 | 4.8 | 0.41 | 2.34 | 1.93 | 96 | 1006.0 |
| 20260506171036 | 8 | 0 | 0.0 | 8.0 | 0.38 | 2.29 | 1.88 | 96 | 1006.1 |
| 20260506170537 | 8 | 0 | 1.6 | 8.0 | 0.38 | 2.26 | 1.85 | 96 | 1006.1 |
| 20260506170045 | 8 | 0 | 3.2 | 8.0 | 0.30 | 2.18 | 1.78 | 96 | 1006.0 |
| 20260506165540 | 8 | 309 | 0.0 | 3.2 | 0.25 | 2.11 | 1.70 | 96 | 1005.8 |
| 20260506165037 | 8 | 0 | 0.0 | 3.2 | 0.23 | 2.06 | 1.65 | 95 | 1005.7 |
| 20260506164547 | 8 | 0 | 0.0 | 3.2 | 0.20 | 2.03 | 1.63 | 96 | 1005.6 |
| 20260506164038 | 8 | 53 | 0.0 | 1.6 | 0.20 | 2.01 | 1.60 | 96 | 1005.7 |
| 20260506163535 | 8 | 0 | 0.0 | 3.2 | 0.20 | 2.01 | 1.60 | 96 | 1005.9 |
| 20260506163100 | 8 | 0 | 0.0 | 3.2 | 0.20 | 1.98 | 1.57 | 95 | 1005.9 |
| 20260506162535 | 8 | 0 | 0.0 | 1.6 | 0.20 | 1.96 | 1.55 | 96 | 1006.0 |
| 20260506162039 | 8 | 0 | 0.0 | 1.6 | 0.18 | 1.93 | 1.52 | 96 | 1006.0 |
| 20260506161546 | 8 | 0 | 0.0 | 3.2 | 0.18 | 1.91 | 1.47 | 96 | 1006.1 |
| 20260506161037 | 8 | 71 | 0.0 | 4.8 | 0.18 | 1.91 | 1.47 | 95 | 1006.1 |
| 20260506160535 | 8 | 0 | 0.0 | 4.8 | 0.18 | 1.88 | 1.47 | 95 | 1006.1 |
| 20260506160049 | 8 | 0 | 0.0 | 3.2 | 0.15 | 1.85 | 1.45 | 95 | 1006.1 |
| 20260506155536 | 8 | 0 | 0.0 | 3.2 | 0.18 | 1.85 | 1.45 | 96 | 1006.4 |
| 20260506155036 | 8 | 0 | 0.0 | 3.2 | 0.18 | 1.83 | 1.42 | 95 | 1006.5 |
| 20260506154552 | 8 | 0 | 0.0 | 3.2 | 0.18 | 1.83 | 1.42 | 96 | 1006.5 |
| 20260506154036 | 8 | 0 | 0.0 | 3.2 | 0.18 | 1.80 | 1.40 | 96 | 1006.5 |
| 20260506153536 | 8 | 0 | 0.0 | 3.2 | 0.18 | 1.80 | 1.40 | 96 | 1006.6 |
| 20260506153048 | 8 | 0 | 0.0 | 3.2 | 0.18 | 1.78 | 1.37 | 95 | 1006.8 |
| 20260506152536 | 8 | 308 | 0.0 | 3.2 | 0.15 | 1.75 | 1.32 | 96 | 1006.9 |
| 20260506152037 | 8 | 0 | 0.0 | 3.2 | 0.18 | 1.75 | 1.32 | 95 | 1007.1 |
| 20260506151549 | 8 | 0 | 0.0 | 1.6 | 0.18 | 1.73 | 1.32 | 95 | 1007.0 |
| 20260506151035 | 8 | 0 | 0.0 | 3.2 | 0.20 | 1.73 | 1.32 | 95 | 1007.0 |
| 20260506150535 | 8 | 0 | 0.0 | 3.2 | 0.18 | 1.70 | 1.30 | 95 | 1007.0 |
| 20260506150055 | 8 | 0 | 0.0 | 3.2 | 0.20 | 1.70 | 1.30 | 96 | 1007.0 |
| 20260506145539 | 8 | 0 | 0.0 | 4.8 | 0.18 | 1.68 | 1.27 | 95 | 1007.1 |
| 20260506145039 | 8 | 0 | 0.0 | 6.4 | 0.18 | 1.65 | 1.24 | 95 | 1007.2 |
| 20260506144545 | 8 | 0 | 0.0 | 6.4 | 0.18 | 1.65 | 1.24 | 95 | 1007.3 |
| 20260506144036 | 8 | 343 | 0.0 | 4.8 | 0.18 | 1.63 | 1.22 | 95 | 1007.1 |
| 20260506143537 | 8 | 328 | 0.0 | 4.8 | 0.18 | 1.63 | 1.22 | 95 | 1007.2 |
| 20260506143047 | 8 | 0 | 0.0 | 4.8 | 0.18 | 1.60 | 1.19 | 95 | 1007.1 |
| 20260506142534 | 8 | 0 | 0.0 | 4.8 | 0.20 | 1.60 | 1.19 | 95 | 1007.3 |
| 20260506142039 | 8 | 0 | 0.0 | 4.8 | 0.18 | 1.57 | 1.17 | 95 | 1006.9 |
| 20260506141548 | 8 | 0 | 0.0 | 4.8 | 0.18 | 1.55 | 1.14 | 95 | 1007.2 |
| 20260506141037 | 8 | 0 | 0.0 | 4.8 | 0.18 | 1.52 | 1.12 | 95 | 1007.8 |
| 20260506140537 | 8 | 328 | 1.6 | 4.8 | 0.18 | 1.47 | 1.09 | 95 | 1007.8 |
| 20260506140059 | 8 | 323 | 0.0 | 12.9 | 0.20 | 1.47 | 1.09 | 96 | 1007.6 |
| 20260506135537 | 8 | 54 | 0.0 | 12.9 | 0.20 | 1.47 | 1.09 | 95 | 1007.4 |
| 20260506135036 | 8 | 348 | 3.2 | 4.8 | 0.20 | 1.47 | 1.07 | 95 | 1007.1 |
| 20260506134548 | 8 | 296 | 0.0 | 4.8 | 0.20 | 1.47 | 1.07 | 95 | 1007.5 |
| 20260506134037 | 8 | 22 | 0.0 | 4.8 | 0.18 | 1.45 | 1.04 | 95 | 1007.3 |
| 20260506133538 | 8 | 323 | 0.0 | 3.2 | 0.18 | 1.45 | 1.04 | 95 | 1007.2 |
| 20260506133043 | 8 | 360 | 0.0 | 4.8 | 0.18 | 1.42 | 1.02 | 95 | 1007.3 |
| 20260506132536 | 9 | 0 | 0.0 | 8.0 | 0.15 | 1.40 | 0.99 | 95 | 1007.6 |
| 20260506132037 | 9 | 11 | 1.6 | 8.0 | 0.15 | 1.40 | 0.99 | 95 | 1007.5 |
| 20260506131548 | 9 | 0 | 0.0 | 4.8 | 0.13 | 1.37 | 0.97 | 95 | 1007.7 |
| 20260506131039 | 9 | 0 | 0.0 | 4.8 | 0.10 | 1.32 | 0.94 | 95 | 1007.8 |
| 20260506130538 | 9 | 29 | 0.0 | 6.4 | 0.08 | 1.32 | 0.91 | 95 | 1007.9 |
| 20260506130054 | 9 | 0 | 0.0 | 6.4 | 0.05 | 1.30 | 0.89 | 95 | 1007.8 |
| 20260506125537 | 9 | 0 | 0.0 | 6.4 | 0.05 | 1.30 | 0.89 | 95 | 1007.8 |
| 20260506125037 | 9 | 29 | 0.0 | 3.2 | 0.03 | 1.27 | 0.86 | 95 | 1008.1 |
| 20260506124545 | 9 | 29 | 0.0 | 3.2 | 0.03 | 1.27 | 0.86 | 96 | 1008.0 |
| 20260506124036 | 9 | 0 | 0.0 | 3.2 | 0.03 | 1.27 | 0.86 | 96 | 1007.9 |
| 20260506123537 | 10 | 0 | 0.0 | 3.2 | 0.03 | 1.27 | 0.86 | 96 | 1008.0 |
| 20260506123043 | 10 | 0 | 0.0 | 3.2 | 0.00 | 1.24 | 0.84 | 95 | 1008.0 |
| 20260506122537 | 10 | 0 | 0.0 | 0.0 | 0.00 | 1.24 | 0.84 | 96 | 1007.9 |
| 20260506122036 | 10 | 0 | 0.0 | 1.6 | 0.00 | 1.24 | 0.84 | 96 | 1008.0 |
| 20260506121547 | 10 | 0 | 0.0 | 1.6 | 0.00 | 1.24 | 0.84 | 96 | 1007.9 |
| 20260506121036 | 10 | 0 | 0.0 | 1.6 | 0.00 | 1.24 | 0.84 | 96 | 1007.8 |
| 20260506120537 | 10 | 0 | 0.0 | 1.6 | 0.00 | 1.24 | 0.84 | 96 | 1007.8 |
| 20260506120106 | 10 | 0 | 0.0 | 1.6 | 0.00 | 1.24 | 0.84 | 96 | 1007.7 |
| 20260506115536 | 10 | 0 | 0.0 | 3.2 | 0.00 | 1.24 | 0.84 | 96 | 1007.8 |
| 20260506115036 | 10 | 0 | 0.0 | 3.2 | 0.00 | 1.24 | 0.84 | 96 | 1007.8 |
| 20260506114558 | 10 | 0 | 0.0 | 3.2 | 0.00 | 1.24 | 0.84 | 96 | 1007.7 |
| 20260506114039 | 10 | 0 | 0.0 | 3.2 | 0.00 | 1.24 | 0.84 | 96 | 1007.8 |
| 20260506113537 | 10 | 0 | 0.0 | 4.8 | 0.00 | 1.24 | 0.84 | 96 | 1007.7 |
| 20260506113045 | 10 | 0 | 0.0 | 4.8 | 0.00 | 1.24 | 0.84 | 96 | 1007.7 |
| 20260506112537 | 10 | 0 | 0.0 | 4.8 | 0.00 | 1.24 | 0.84 | 96 | 1007.7 |
| 20260506112037 | 10 | 0 | 0.0 | 3.2 | 0.00 | 1.24 | 0.84 | 96 | 1007.7 |
| 20260506111552 | 10 | 301 | 0.0 | 1.6 | 0.00 | 1.24 | 0.84 | 96 | 1007.7 |
| 20260506111038 | 10 | 0 | 0.0 | 0.0 | 0.00 | 1.24 | 0.84 | 96 | 1007.8 |
| 20260506110537 | 10 | 0 | 0.0 | 0.0 | 0.00 | 1.24 | 0.84 | 96 | 1007.7 |
| 20260506110050 | 10 | 0 | 0.0 | 0.0 | 0.00 | 1.24 | 0.84 | 96 | 1008.0 |
| 20260506105539 | 10 | 0 | 0.0 | 0.0 | 0.00 | 1.24 | 0.84 | 96 | 1007.8 |
| 20260506105037 | 10 | 0 | 0.0 | 0.0 | 0.00 | 1.24 | 0.84 | 96 | 1008.0 |
| 20260506104547 | 10 | 0 | 0.0 | 0.0 | 0.00 | 1.24 | 0.84 | 96 | 1008.1 |
| 20260506104037 | 10 | 0 | 0.0 | 3.2 | 0.00 | 1.24 | 0.84 | 96 | 1007.9 |
| 20260506103537 | 10 | 0 | 0.0 | 3.2 | 0.00 | 1.24 | 0.84 | 96 | 1007.8 |
| 20260506103044 | 10 | 85 | 0.0 | 3.2 | 0.00 | 1.24 | 0.84 | 96 | 1007.9 |
| 20260506102537 | 10 | 0 | 0.0 | 0.0 | 0.00 | 1.24 | 0.84 | 96 | 1008.3 |
| 20260506102036 | 10 | 0 | 0.0 | 0.0 | 0.00 | 1.24 | 0.84 | 96 | 1008.3 |
| 20260506101549 | 10 | 0 | 0.0 | 0.0 | 0.00 | 1.24 | 0.84 | 96 | 1008.2 |
| 20260506101037 | 10 | 0 | 0.0 | 0.0 | 0.00 | 1.24 | 0.84 | 96 | 1007.9 |
| 20260506100537 | 10 | 0 | 0.0 | 0.0 | 0.00 | 1.24 | 0.84 | 96 | 1007.9 |
| 20260506100049 | 10 | 0 | 0.0 | 0.0 | 0.00 | 1.24 | 0.84 | 96 | 1008.3 |
| 20260506095538 | 10 | 0 | 0.0 | 0.0 | 0.00 | 1.24 | 0.84 | 96 | 1008.2 |
| 20260506095037 | 10 | 0 | 0.0 | 0.0 | 0.00 | 1.24 | 0.84 | 96 | 1008.1 |
| 20260506094548 | 10 | 0 | 0.0 | 0.0 | 0.03 | 1.24 | 0.84 | 96 | 1008.1 |
| 20260506094041 | 10 | 0 | 0.0 | 3.2 | 0.03 | 1.24 | 0.84 | 96 | 1008.3 |
| 20260506093537 | 10 | 0 | 0.0 | 3.2 | 0.03 | 1.24 | 0.84 | 96 | 1008.3 |
| 20260506093105 | 10 | 0 | 0.0 | 3.2 | 0.03 | 1.24 | 0.84 | 96 | 1008.3 |
| 20260506092537 | 10 | 0 | 0.0 | 0.0 | 0.03 | 1.24 | 0.84 | 96 | 1008.4 |
| 20260506092037 | 10 | 0 | 0.0 | 0.0 | 0.03 | 1.24 | 0.84 | 96 | 1008.4 |
| 20260506091547 | 10 | 0 | 0.0 | 1.6 | 0.03 | 1.24 | 0.84 | 96 | 1008.6 |
| 20260506091038 | 10 | 0 | 0.0 | 1.6 | 0.03 | 1.24 | 0.84 | 96 | 1008.5 |
| 20260506090537 | 10 | 0 | 0.0 | 0.0 | 0.03 | 1.24 | 0.84 | 96 | 1008.5 |
| 20260506090049 | 10 | 0 | 0.0 | 0.0 | 0.03 | 1.24 | 0.84 | 96 | 1008.5 |
| 20260506085537 | 10 | 0 | 0.0 | 1.6 | 0.03 | 1.24 | 0.84 | 96 | 1008.6 |
| 20260506085037 | 10 | 0 | 0.0 | 4.8 | 0.03 | 1.24 | 0.84 | 96 | 1008.5 |
| 20260506084548 | 10 | 71 | 1.6 | 4.8 | 0.00 | 1.22 | 0.81 | 96 | 1008.7 |
| 20260506084040 | 10 | 0 | 0.0 | 1.6 | 0.00 | 1.22 | 0.81 | 96 | 1009.4 |
| 20260506083537 | 10 | 0 | 0.0 | 3.2 | 0.00 | 1.22 | 0.81 | 96 | 1008.7 |
| 20260506083045 | 10 | 0 | 0.0 | 3.2 | 0.03 | 1.22 | 0.81 | 96 | 1008.4 |
| 20260506082537 | 10 | 0 | 0.0 | 3.2 | 0.03 | 1.22 | 0.81 | 96 | 1008.3 |
| 20260506082036 | 10 | 298 | 0.0 | 3.2 | 0.05 | 1.22 | 0.81 | 96 | 1008.6 |
| 20260506081545 | 10 | 0 | 0.0 | 0.0 | 0.10 | 1.22 | 0.81 | 96 | 1008.5 |
| 20260506081037 | 10 | 0 | 0.0 | 0.0 | 0.10 | 1.22 | 0.81 | 96 | 1008.2 |
| 20260506080537 | 10 | 0 | 0.0 | 0.0 | 0.10 | 1.22 | 0.81 | 95 | 1008.2 |
| 20260506073059 | 10 | 0 | 0.0 | 3.2 | 0.08 | 1.19 | 0.79 | 95 | 1008.3 |
| 20260506072537 | 10 | 0 | 0.0 | 4.8 | 0.08 | 1.19 | 0.79 | 95 | 1008.4 |
| 20260506072037 | 10 | 248 | 0.0 | 4.8 | 0.03 | 1.14 | 0.74 | 95 | 1008.8 |
| 20260506071544 | 10 | 0 | 0.0 | 1.6 | 0.03 | 1.12 | 0.71 | 95 | 1008.7 |
| 20260506071036 | 10 | 0 | 0.0 | 0.0 | 0.05 | 1.12 | 0.71 | 95 | 1008.3 |
| 20260506070538 | 10 | 0 | 0.0 | 0.0 | 0.05 | 1.12 | 0.71 | 96 | 1008.2 |
| 20260506062035 | 11 | 0 | 0.0 | 1.6 | 0.18 | 1.12 | 0.71 | 95 | 1008.2 |
| 20260506061559 | 11 | 0 | 0.0 | 0.0 | 0.18 | 1.09 | 0.69 | 95 | 1008.7 |
| 20260506061035 | 11 | 0 | 0.0 | 0.0 | 0.18 | 1.07 | 0.66 | 95 | 1008.8 |
| 20260506060535 | 11 | 0 | 0.0 | 0.0 | 0.20 | 1.07 | 0.66 | 95 | 1008.5 |
| 20260506051034 | 11 | 0 | 0.0 | 0.0 | 0.43 | 0.89 | 0.48 | 94 | 1008.6 |
| 20260506050534 | 11 | 0 | 0.0 | 0.0 | 0.43 | 0.86 | 0.46 | 94 | 1008.6 |
| 20260506045034 | 11 | 0 | 0.0 | 4.8 | 0.53 | 0.86 | 0.46 | 94 | 1008.3 |
| 20260506044542 | 11 | 0 | 0.0 | 4.8 | 0.56 | 0.86 | 0.46 | 93 | 1008.7 |
| 20260506044035 | 11 | 309 | 0.0 | 17.7 | 0.56 | 0.86 | 0.46 | 93 | 1008.7 |
| 20260506043535 | 11 | 22 | 3.2 | 17.7 | 0.53 | 0.84 | 0.43 | 93 | 1008.7 |
| 20260506043050 | 11 | 329 | 1.6 | 9.7 | 0.41 | 0.71 | 0.30 | 93 | 1009.0 |
| 20260506042535 | 11 | 0 | 1.6 | 6.4 | 0.33 | 0.64 | 0.23 | 93 | 1008.7 |
| 20260506042035 | 12 | 0 | 0.0 | 4.8 | 0.33 | 0.64 | 0.23 | 93 | 1008.3 |
| 20260506041557 | 12 | 0 | 1.6 | 8.0 | 0.25 | 0.56 | 0.15 | 93 | 1008.4 |
| 20260506041034 | 12 | 13 | 1.6 | 9.7 | 0.15 | 0.46 | 0.05 | 93 | 1008.2 |
| 20260506040538 | 12 | 325 | 3.2 | 12.9 | 0.15 | 0.43 | 0.03 | 93 | 1008.2 |
| 20260506040051 | 12 | 319 | 0.0 | 12.9 | 0.13 | 0.41 | 0.00 | 94 | 1008.0 |
| 20260506035535 | 12 | 333 | 1.6 | 12.9 | 0.08 | 0.36 | 0.36 | 94 | 1007.8 |
| 20260506035035 | 12 | 313 | 0.0 | 3.2 | 0.05 | 0.33 | 0.33 | 94 | 1007.7 |
| 20260506034541 | 12 | 0 | 0.0 | 0.0 | 0.03 | 0.30 | 0.30 | 94 | 1007.4 |
| 20260506034034 | 12 | 0 | 0.0 | 0.0 | 0.03 | 0.30 | 0.30 | 93 | 1007.0 |
| 20260506033536 | 12 | 0 | 0.0 | 0.0 | 0.03 | 0.30 | 0.30 | 93 | 1006.8 |
| 20260506033050 | 12 | 0 | 0.0 | 0.0 | 0.03 | 0.30 | 0.30 | 93 | 1006.8 |
| 20260506032535 | 13 | 0 | 0.0 | 0.0 | 0.03 | 0.30 | 0.30 | 92 | 1006.6 |
| 20260506032036 | 13 | 0 | 0.0 | 0.0 | 0.03 | 0.30 | 0.30 | 92 | 1006.8 |
| 20260506031547 | 13 | 0 | 0.0 | 0.0 | 0.03 | 0.30 | 0.30 | 91 | 1006.8 |
| 20260506031037 | 13 | 0 | 0.0 | 0.0 | 0.03 | 0.30 | 0.30 | 91 | 1006.9 |
| 20260506030538 | 13 | 0 | 0.0 | 0.0 | 0.00 | 0.28 | 0.28 | 90 | 1006.8 |
| 20260506030044 | 13 | 0 | 0.0 | 1.6 | 0.00 | 0.28 | 0.28 | 90 | 1006.8 |
| 20260506025537 | 13 | 0 | 0.0 | 3.2 | 0.00 | 0.28 | 0.28 | 91 | 1006.8 |
| 20260506025037 | 13 | 0 | 0.0 | 3.2 | 0.00 | 0.28 | 0.28 | 92 | 1006.6 |
| 20260506024544 | 13 | 198 | 0.0 | 1.6 | 0.00 | 0.28 | 0.28 | 92 | 1006.5 |
| 20260506024037 | 13 | 0 | 0.0 | 1.6 | 0.00 | 0.28 | 0.28 | 92 | 1006.7 |
| 20260506023537 | 13 | 275 | 0.0 | 3.2 | 0.00 | 0.28 | 0.28 | 92 | 1006.7 |
| 20260506023051 | 13 | 0 | 0.0 | 3.2 | 0.00 | 0.28 | 0.28 | 92 | 1006.8 |
| 20260506022536 | 13 | 0 | 0.0 | 3.2 | 0.00 | 0.28 | 0.28 | 91 | 1006.8 |
| 20260506022036 | 13 | 0 | 0.0 | 0.0 | 0.00 | 0.28 | 0.28 | 91 | 1006.7 |
| 20260506021547 | 13 | 0 | 0.0 | 1.6 | 0.00 | 0.28 | 0.28 | 92 | 1006.6 |
| 20260506021039 | 13 | 0 | 0.0 | 4.8 | 0.00 | 0.28 | 0.28 | 93 | 1006.6 |
| 20260506020536 | 13 | 0 | 0.0 | 4.8 | 0.00 | 0.28 | 0.28 | 94 | 1006.7 |
| 20260506020114 | 12 | 0 | 0.0 | 4.8 | 0.00 | 0.28 | 0.28 | 94 | 1006.4 |
| 20260506015540 | 12 | 0 | 0.0 | 0.0 | 0.00 | 0.28 | 0.28 | 94 | 1006.3 |
| 20260506015036 | 12 | 0 | 0.0 | 0.0 | 0.00 | 0.28 | 0.28 | 94 | 1006.4 |
| 20260506014544 | 12 | 0 | 0.0 | 0.0 | 0.00 | 0.28 | 0.28 | 94 | 1006.5 |
| 20260506014037 | 12 | 0 | 0.0 | 1.6 | 0.00 | 0.28 | 0.28 | 94 | 1006.4 |
| 20260506013537 | 12 | 0 | 0.0 | 1.6 | 0.00 | 0.28 | 0.28 | 94 | 1006.5 |
| 20260506013048 | 12 | 0 | 0.0 | 1.6 | 0.00 | 0.28 | 0.28 | 94 | 1006.4 |
| 20260506012537 | 13 | 0 | 0.0 | 1.6 | 0.00 | 0.28 | 0.28 | 94 | 1006.5 |
| 20260506012036 | 13 | 0 | 0.0 | 1.6 | 0.00 | 0.28 | 0.28 | 94 | 1006.4 |
| 20260506011549 | 13 | 0 | 0.0 | 3.2 | 0.00 | 0.28 | 0.28 | 94 | 1006.4 |
| 20260506011037 | 13 | 0 | 0.0 | 3.2 | 0.00 | 0.28 | 0.28 | 94 | 1006.5 |
| 20260506010539 | 13 | 0 | 0.0 | 3.2 | 0.00 | 0.28 | 0.28 | 94 | 1006.4 |
| 20260506010050 | 13 | 0 | 0.0 | 3.2 | 0.00 | 0.28 | 0.28 | 94 | 1006.5 |
| 20260506005537 | 13 | 0 | 0.0 | 3.2 | 0.00 | 0.28 | 0.28 | 94 | 1006.4 |
| 20260506005036 | 13 | 0 | 0.0 | 1.6 | 0.00 | 0.28 | 0.28 | 94 | 1006.4 |
| 20260506004546 | 13 | 0 | 0.0 | 1.6 | 0.00 | 0.28 | 0.28 | 94 | 1006.3 |
| 20260506004036 | 13 | 0 | 0.0 | 0.0 | 0.00 | 0.28 | 0.28 | 94 | 1006.3 |
| 20260506003536 | 13 | 0 | 0.0 | 0.0 | 0.00 | 0.28 | 0.28 | 94 | 1006.2 |
| 20260506003047 | 13 | 0 | 0.0 | 1.6 | 0.00 | 0.28 | 0.28 | 94 | 1006.1 |
| 20260506002537 | 13 | 0 | 0.0 | 1.6 | 0.00 | 0.28 | 0.28 | 93 | 1005.9 |
| 20260506002036 | 13 | 0 | 0.0 | 0.0 | 0.00 | 0.28 | 0.28 | 93 | 1005.9 |
| 20260506001549 | 13 | 0 | 0.0 | 0.0 | 0.00 | 0.28 | 0.28 | 93 | 1006.0 |
| 20260506001036 | 13 | 0 | 0.0 | 4.8 | 0.00 | 0.28 | 0.28 | 92 | 1006.0 |
| 20260506000536 | 14 | 0 | 0.0 | 4.8 | 0.00 | 0.28 | 0.28 | 92 | 1006.0 |
| 20260506000056 | 14 | 0 | 0.0 | 1.6 | 0.00 | 0.28 | 0.28 | 93 | 1006.0 |
| 20260505235538 | 14 | 0 | 0.0 | 1.6 | 0.00 | 0.28 | 0.28 | 93 | 1005.8 |
| 20260505235039 | 13 | 0 | 0.0 | 1.6 | 0.00 | 0.28 | 0.28 | 94 | 1005.7 |
| 20260505234544 | 13 | 0 | 0.0 | 1.6 | 0.00 | 0.28 | 0.28 | 94 | 1005.6 |
| 20260505234037 | 13 | 0 | 0.0 | 1.6 | 0.00 | 0.28 | 0.28 | 94 | 1005.6 |
| 20260505233536 | 13 | 0 | 0.0 | 1.6 | 0.00 | 0.28 | 0.28 | 94 | 1005.7 |
| 20260505233051 | 13 | 0 | 0.0 | 1.6 | 0.00 | 0.28 | 0.28 | 94 | 1005.6 |
| 20260505232539 | 13 | 0 | 0.0 | 1.6 | 0.00 | 0.28 | 0.28 | 94 | 1005.7 |
| 20260505232037 | 13 | 0 | 0.0 | 0.0 | 0.00 | 0.28 | 0.28 | 94 | 1005.5 |
| 20260505231554 | 13 | 0 | 0.0 | 0.0 | 0.00 | 0.28 | 0.28 | 94 | 1005.4 |
| 20260505231037 | 14 | 0 | 0.0 | 0.0 | 0.00 | 0.28 | 0.28 | 94 | 1005.6 |
| 20260505230536 | 14 | 0 | 0.0 | 1.6 | 0.00 | 0.28 | 0.28 | 94 | 1005.5 |
| 20260505230049 | 14 | 0 | 0.0 | 1.6 | 0.00 | 0.28 | 0.28 | 94 | 1005.4 |
| 20260505225536 | 14 | 0 | 0.0 | 4.8 | 0.00 | 0.28 | 0.28 | 93 | 1005.2 |
| 20260505225037 | 14 | 0 | 0.0 | 4.8 | 0.00 | 0.28 | 0.28 | 93 | 1005.1 |
| 20260505224550 | 15 | 337 | 0.0 | 4.8 | 0.00 | 0.28 | 0.28 | 93 | 1005.1 |
| 20260505224036 | 15 | 0 | 0.0 | 4.8 | 0.00 | 0.28 | 0.28 | 93 | 1005.4 |
| 20260505223536 | 15 | 121 | 0.0 | 4.8 | 0.00 | 0.28 | 0.28 | 93 | 1005.4 |
| 20260505223046 | 15 | 0 | 0.0 | 0.0 | 0.00 | 0.28 | 0.28 | 94 | 1005.8 |
| 20260505222538 | 15 | 0 | 0.0 | 0.0 | 0.00 | 0.28 | 0.28 | 94 | 1005.4 |
| 20260505222042 | 15 | 0 | 0.0 | 0.0 | 0.00 | 0.28 | 0.28 | 94 | 1005.3 |
| 20260505221555 | 15 | 0 | 0.0 | 0.0 | 0.00 | 0.28 | 0.28 | 94 | 1005.4 |
| 20260505221036 | 15 | 0 | 0.0 | 0.0 | 0.00 | 0.28 | 0.28 | 93 | 1005.3 |
| 20260505220536 | 15 | 0 | 0.0 | 0.0 | 0.00 | 0.28 | 0.28 | 93 | 1005.2 |
| 20260505220103 | 15 | 0 | 0.0 | 0.0 | 0.00 | 0.28 | 0.28 | 93 | 1005.0 |
| 20260505215538 | 15 | 0 | 0.0 | 3.2 | 0.03 | 0.28 | 0.28 | 93 | 1005.2 |
| 20260505215036 | 15 | 0 | 0.0 | 3.2 | 0.03 | 0.28 | 0.28 | 92 | 1005.2 |
| 20260505214551 | 15 | 0 | 0.0 | 3.2 | 0.03 | 0.28 | 0.28 | 92 | 1005.3 |
| 20260505214036 | 15 | 0 | 0.0 | 9.7 | 0.03 | 0.28 | 0.28 | 91 | 1005.0 |
| 20260505213536 | 16 | 0 | 0.0 | 9.7 | 0.03 | 0.28 | 0.28 | 89 | 1005.0 |
| 20260505213047 | 15 | 313 | 0.0 | 6.4 | 0.05 | 0.28 | 0.28 | 88 | 1005.1 |
| 20260505212536 | 15 | 150 | 0.0 | 6.4 | 0.08 | 0.28 | 0.28 | 89 | 1005.1 |